Stündliche Wetter Abdulino

Heute, 24 Juni, Donnerstag

Zeit Temperatur Niederschläge Wind Luftdruck Luftfeuchtigkeit
00:00 +19°C° 0 mm 2 m/S 748 mmHg 85%
01:00 +19°C° 0 mm 2 m/S 747 mmHg 87%
02:00 +19°C° 0 mm 2 m/S 748 mmHg 89%
03:00 +18°C° 0 mm 2 m/S 748 mmHg 91%
04:00 +18°C° 0 mm 2 m/S 748 mmHg 93%
05:00 +19°C° 0 mm 2 m/S 748 mmHg 88%
06:00 +20°C° 0 mm 2 m/S 748 mmHg 84%
07:00 +21°C° 0 mm 3 m/S 749 mmHg 79%
08:00 +22°C° 0 mm 3 m/S 749 mmHg 73%
09:00 +24°C° 0 mm 3 m/S 749 mmHg 67%
10:00 +26°C° 0 mm 3 m/S 749 mmHg 60%
11:00 +26°C° 0 mm 3 m/S 749 mmHg 56%
12:00 +27°C° 0 mm 3 m/S 749 mmHg 52%
13:00 +28°C° 0 mm 3 m/S 749 mmHg 48%
14:00 +28°C° 0 mm 3 m/S 749 mmHg 48%
15:00 +28°C° 0 mm 3 m/S 749 mmHg 47%
16:00 +28°C° 0 mm 3 m/S 748 mmHg 46%
17:00 +28°C° 0 mm 3 m/S 748 mmHg 51%
18:00 +27°C° 0 mm 2 m/S 748 mmHg 56%
19:00 +26°C° 0 mm 2 m/S 748 mmHg 61%
20:00 +24°C° 0 mm 1 m/S 748 mmHg 64%
21:00 +22°C° 0 mm 1 m/S 748 mmHg 66%
22:00 +19°C° 0 mm 0 m/S 748 mmHg 68%
23:00 +18°C° 0 mm 0 m/S 748 mmHg 69%

Morgen, 25 Juni, Freitag

Zeit Temperatur Niederschläge Wind Luftdruck Luftfeuchtigkeit
00:00 +18°C° 0 mm 0 m/S 747 mmHg 69%
01:00 +17°C° 0 mm 0 m/S 747 mmHg 70%
02:00 +17°C° 0 mm 0 m/S 747 mmHg 71%
03:00 +17°C° 0 mm 0 m/S 747 mmHg 73%
04:00 +17°C° 0 mm 0 m/S 747 mmHg 74%
05:00 +20°C° 0 mm 1 m/S 747 mmHg 72%
06:00 +22°C° 0 mm 1 m/S 747 mmHg 70%
07:00 +23°C° 0 mm 2 m/S 747 mmHg 68%
08:00 +25°C° 0 mm 2 m/S 747 mmHg 66%
09:00 +26°C° 0 mm 3 m/S 747 mmHg 63%
10:00 +28°C° 0 mm 4 m/S 746 mmHg 61%
11:00 +29°C° 0.1 mm 4 m/S 746 mmHg 59%
12:00 +30°C° 0.1 mm 4 m/S 746 mmHg 57%
13:00 +32°C° 0.1 mm 4 m/S 746 mmHg 55%
14:00 +32°C° 0.7 mm 4 m/S 746 mmHg 54%
15:00 +33°C° 0.7 mm 4 m/S 745 mmHg 53%
16:00 +33°C° 0.7 mm 4 m/S 745 mmHg 52%
17:00 +28°C° 5.8 mm 4 m/S 745 mmHg 65%
18:00 +25°C° 5.8 mm 4 m/S 745 mmHg 78%
19:00 +21°C° 5.8 mm 4 m/S 745 mmHg 92%
20:00 +21°C° 0.9 mm 3 m/S 745 mmHg 91%
21:00 +20°C° 0.9 mm 2 m/S 745 mmHg 90%
22:00 +20°C° 0.9 mm 2 m/S 744 mmHg 89%
23:00 +20°C° 0.5 mm 2 m/S 744 mmHg 88%

übermorgen, 26 Juni, Samstag

Zeit Temperatur Niederschläge Wind Luftdruck Luftfeuchtigkeit
00:00 +22°C° 0.5 mm 1 m/S 744 mmHg 87%
01:00 +22°C° 0.5 mm 1 m/S 744 mmHg 87%
02:00 +21°C° 0.2 mm 1 m/S 744 mmHg 85%
03:00 +21°C° 0.2 mm 1 m/S 744 mmHg 84%
04:00 +21°C° 0.2 mm 1 m/S 744 mmHg 83%
05:00 +22°C° 0.1 mm 1 m/S 744 mmHg 82%
06:00 +23°C° 0.1 mm 1 m/S 744 mmHg 81%
07:00 +24°C° 0.1 mm 1 m/S 744 mmHg 80%
08:00 +26°C° 0 mm 2 m/S 744 mmHg 74%
09:00 +27°C° 0 mm 2 m/S 744 mmHg 69%
10:00 +29°C° 0 mm 3 m/S 744 mmHg 63%
11:00 +30°C° 0 mm 3 m/S 744 mmHg 60%
12:00 +30°C° 0 mm 3 m/S 744 mmHg 57%
13:00 +31°C° 0 mm 3 m/S 744 mmHg 54%
14:00 +31°C° 0 mm 3 m/S 744 mmHg 53%
15:00 +33°C° 0 mm 3 m/S 744 mmHg 52%
16:00 +33°C° 0 mm 3 m/S 743 mmHg 52%
17:00 +31°C° 0.1 mm 3 m/S 743 mmHg 58%
18:00 +30°C° 0.1 mm 3 m/S 743 mmHg 64%
19:00 +29°C° 0.1 mm 3 m/S 743 mmHg 70%
20:00 +28°C° 0 mm 2 m/S 743 mmHg 75%
21:00 +26°C° 0 mm 2 m/S 743 mmHg 79%
22:00 +25°C° 0 mm 1 m/S 743 mmHg 83%
23:00 +24°C° 0.1 mm 1 m/S 743 mmHg 85%

27 Juni, Sonntag

Zeit Temperatur Niederschläge Wind Luftdruck Luftfeuchtigkeit
00:00 +24°C° 0.1 mm 1 m/S 743 mmHg 86%
01:00 +23°C° 0.1 mm 1 m/S 743 mmHg 88%
02:00 +23°C° 0.7 mm 1 m/S 743 mmHg 88%
03:00 +22°C° 0.7 mm 1 m/S 743 mmHg 89%
04:00 +22°C° 0.7 mm 1 m/S 743 mmHg 90%
05:00 +23°C° 0 mm 2 m/S 743 mmHg 87%
06:00 +24°C° 0 mm 2 m/S 743 mmHg 84%
07:00 +25°C° 0 mm 2 m/S 743 mmHg 82%
08:00 +26°C° 0 mm 3 m/S 743 mmHg 76%
09:00 +27°C° 0 mm 3 m/S 743 mmHg 71%
10:00 +29°C° 0 mm 3 m/S 743 mmHg 66%
11:00 +29°C° 0.1 mm 4 m/S 743 mmHg 63%
12:00 +30°C° 0.1 mm 4 m/S 744 mmHg 60%
13:00 +32°C° 0.1 mm 4 m/S 744 mmHg 57%
14:00 +32°C° 0.1 mm 4 m/S 744 mmHg 58%
15:00 +30°C° 0.1 mm 4 m/S 744 mmHg 58%
16:00 +30°C° 0.1 mm 4 m/S 744 mmHg 59%
17:00 +30°C° 0 mm 3 m/S 744 mmHg 63%
18:00 +29°C° 0 mm 3 m/S 744 mmHg 67%
19:00 +28°C° 0 mm 2 m/S 744 mmHg 71%
20:00 +27°C° 0 mm 2 m/S 744 mmHg 75%
21:00 +25°C° 0 mm 1 m/S 744 mmHg 78%
22:00 +24°C° 0 mm 1 m/S 744 mmHg 82%
23:00 +24°C° 0 mm 1 m/S 744 mmHg 83%

28 Juni, Montag

Zeit Temperatur Niederschläge Wind Luftdruck Luftfeuchtigkeit
00:00 +23°C° 0 mm 1 m/S 744 mmHg 85%
01:00 +23°C° 0 mm 1 m/S 744 mmHg 86%
02:00 +21°C° 0 mm 2 m/S 744 mmHg 86%
03:00 +21°C° 0 mm 2 m/S 745 mmHg 85%
04:00 +20°C° 0 mm 2 m/S 745 mmHg 85%
05:00 +21°C° 0 mm 2 m/S 745 mmHg 80%
06:00 +23°C° 0 mm 2 m/S 745 mmHg 75%
07:00 +24°C° 0 mm 3 m/S 745 mmHg 70%
08:00 +25°C° 0 mm 3 m/S 745 mmHg 65%
09:00 +26°C° 0 mm 4 m/S 745 mmHg 59%
10:00 +27°C° 0 mm 4 m/S 745 mmHg 54%
11:00 +28°C° 0 mm 4 m/S 746 mmHg 52%
12:00 +28°C° 0 mm 4 m/S 746 mmHg 49%
13:00 +29°C° 0 mm 4 m/S 746 mmHg 47%
14:00 +29°C° 0 mm 4 m/S 746 mmHg 47%
15:00 +29°C° 0 mm 4 m/S 746 mmHg 47%
16:00 +29°C° 0 mm 4 m/S 746 mmHg 47%
17:00 +28°C° 0 mm 3 m/S 745 mmHg 53%
18:00 +28°C° 0 mm 3 m/S 745 mmHg 59%
19:00 +27°C° 0 mm 3 m/S 745 mmHg 65%
20:00 +25°C° 0 mm 3 m/S 745 mmHg 69%
21:00 +24°C° 0 mm 3 m/S 745 mmHg 72%
22:00 +21°C° 0 mm 3 m/S 745 mmHg 75%
23:00 +20°C° 0 mm 2 m/S 745 mmHg 76%

29 Juni, Dienstag

Zeit Temperatur Niederschläge Wind Luftdruck Luftfeuchtigkeit
00:00 +20°C° 0 mm 2 m/S 745 mmHg 77%
01:00 +19°C° 0 mm 2 m/S 745 mmHg 79%
02:00 +19°C° 0 mm 2 m/S 745 mmHg 78%
03:00 +19°C° 0 mm 2 m/S 745 mmHg 78%
04:00 +20°C° 0 mm 1 m/S 745 mmHg 77%
05:00 +20°C° 0 mm 2 m/S 745 mmHg 75%
06:00 +21°C° 0 mm 2 m/S 746 mmHg 72%
07:00 +24°C° 0 mm 3 m/S 746 mmHg 69%
08:00 +25°C° 0 mm 3 m/S 746 mmHg 65%
09:00 +26°C° 0 mm 4 m/S 746 mmHg 60%
10:00 +27°C° 0 mm 4 m/S 746 mmHg 56%
11:00 +28°C° 0 mm 4 m/S 746 mmHg 54%
12:00 +29°C° 0 mm 5 m/S 746 mmHg 52%
13:00 +29°C° 0 mm 5 m/S 746 mmHg 50%
14:00 +30°C° 0 mm 4 m/S 746 mmHg 49%
15:00 +30°C° 0 mm 4 m/S 746 mmHg 49%
16:00 +32°C° 0 mm 4 m/S 745 mmHg 48%
17:00 +30°C° 0 mm 3 m/S 745 mmHg 52%
18:00 +30°C° 0 mm 2 m/S 745 mmHg 57%
19:00 +29°C° 0 mm 1 m/S 745 mmHg 61%
20:00 +28°C° 0 mm 2 m/S 745 mmHg 63%
21:00 +26°C° 0 mm 2 m/S 745 mmHg 64%
22:00 +24°C° 0 mm 2 m/S 744 mmHg 66%
23:00 +24°C° 0 mm 2 m/S 744 mmHg 66%
Mehr zeigen

Wir brauchen deine Erlaubnis

Meteoprog und unser Service Anbieter werden persönliche Daten aufbewahren, so wie Cookies, Geräte Bezeichnung oder ähnliche Technologien von deinem Gerät und Prozess, so wie Persönliche Daten Inhalte und Werbungen, genauso wie social Media und den Verkehr zu analysieren.

  • Aufbewahrung und/oder Zugang zu deiner Geräte Informationen.

    Cookies, Geräte Bezeichnung oder andere Informationen, können aufbewahrt oder Zugang zu deinem Gerät erhalten, für den Grund, der oben angegeben wird.

  • Personalisierte Werbung und Inhalte, Messungen, Einblick in das Publikum und Produkt Entwicklung.

    Werbungen und Inhalte können personalisiert werden, basierend auf ein Profil. Mehr Daten können besser personalisierte Werbungen und Inhalte hinzufügen. Werbung und Inhalte können gezeigt und gemessen werden. Einblicke über das Publikum, welche die Werbung gesehen haben und den Inhalt, können abgeleitet werden. So wie Daten können genutzt werden, um es zu verbessern oder die Benutzer Erfahrung zu verbessern das System und die Software.

Wenn du “Ich stimme zu” klickst, erlaubst du uns, die Cookies zu benutzen die Geräte Bezeichnung, den Web oder ähnliche Technologien zu benutzen. Deine Settings, können in deinem Gerät bei deinem Browser geändert werden.

Für den bestimmten Zweck, berechtigten Interessen beruhen darauf, mehr als auf den Inhalt. Du kannst mehr darüber in unseren Privaten und Cookie Politik lesen.